CAPE
7 20 7 0 1 0 3 4 0 13 5 0 0 7 1 6 0 0 0 0 0 16 20 19 12 11 7 17 29 32 31 15 23 21 5 25 25 3 8 14 1 0 168 355 1052
6 8 31 8 1 0 2 4 2 6 4 4 0 2 2 3 0 0 0 0 0 34 9 6 16 18 11 3 22 23 20 9 13 46 54 37 1 5 0 0 0 51 120 686 1380
20 22 29 30 1 0 0 3 1 2 4 11 0 0 0 0 0 0 0 0 1 31 1 21 29 16 15 26 18 24 2 16 39 14 22 0 4 0 24 9 0 1 181 472 1155
12 4 9 3 4 0 0 2 1 0 4 6 2 0 0 0 0 0 0 0 0 1 5 14 10 21 18 2 20 1 20 38 52 50 17 0 8 11 22 0 2 0 0 674 851
6 6 5 3 14 0 0 1 1 3 3 5 3 0 0 0 0 0 0 0 0 0 20 16 15 18 24 17 21 7 33 41 28 6 0 8 3 0 2 1 0 1 31 478 800
10 7 6 1 7 0 0 2 1 3 2 4 0 1 6 0 0 0 0 0 0 0 5 19 32 40 52 29 16 27 35 53 34 0 7 1 0 2 0 0 35 11 2 381 307
11 6 5 21 18 0 7 2 3 3 1 4 2 2 2 0 0 0 0 0 0 0 0 1 8 20 31 0 3 22 11 37 19 12 3 3 3 0 0 5 5 0 280 436 351
12 8 1 3 4 3 6 0 0 0 0 2 1 2 0 0 0 0 0 0 1 1 8 5 22 16 47 19 13 22 22 13 10 6 3 0 0 0 3 13 23 75 351 302 326
5 7 1 0 1 6 3 0 0 1 2 0 2 0 0 0 0 0 0 0 0 0 2 0 0 30 19 3 19 9 0 0 0 0 0 0 0 0 0 15 15 136 228 199 281
5 5 0 6 0 1 4 0 0 0 0 0 0 0 0 0 0 0 0 0 0 1 0 0 0 1 2 7 0 8 0 0 0 0 0 0 0 0 0 9 36 243 171 304 195
31 5 0 4 11 7 1 0 0 0 0 0 0 0 0 0 0 0 0 0 0 0 0 1 8 15 18 10 16 4 2 0 0 0 0 0 0 0 0 33 48 250 390 362 207
57 8 0 0 17 6 0 0 0 0 0 0 0 0 0 0 0 0 0 0 0 2 9 2 1 13 1 6 14 14 3 0 0 0 0 0 2 3 0 14 54 98 308 295 182
49 26 0 0 2 0 0 0 0 0 0 0 0 0 0 0 0 0 0 0 0 0 8 10 1 0 2 4 1 14 12 8 2 2 0 1 0 0 0 13 12 12 89 192 185
70 41 1 0 6 0 0 0 0 0 0 0 0 0 0 0 0 0 0 0 0 0 0 0 1 0 0 13 21 3 0 7 10 5 12 0 1 2 0 2 4 0 0 5 67
60 34 10 0 0 1 0 0 0 0 0 0 0 0 0 0 0 0 0 0 0 1 0 0 0 1 0 7 0 11 0 11 11 8 3 1 0 3 3 0 0 11 0 0 0
45 33 10 0 4 0 0 0 0 0 0 0 0 0 0 0 0 0 0 0 0 0 0 0 0 0 4 0 0 1 16 17 19 4 0 0 0 8 3 6 8 34 2 0 0
12 18 0 1 9 0 0 0 0 0 0 0 0 0 0 0 0 0 0 0 0 0 0 0 0 0 0 14 11 8 6 10 6 0 0 0 0 0 0 0 0 6 17 0 0
11 2 0 6 21 0 0 4 0 0 0 0 0 0 0 0 0 0 0 0 0 0 0 0 0 0 0 16 19 13 17 9 3 9 7 0 0 0 0 0 0 0 0 0 0
0 0 18 24 13 1 1 0 1 0 0 0 0 0 0 0 0 0 0 0 0 0 0 0 0 0 0 0 12 18 11 17 1 0 0 7 0 0 0 0 0 0 0 0 0
17 0 10 13 4 7 3 1 0 0 0 0 0 0 0 0 0 0 0 0 0 0 0 2 0 0 0 1 22 12 12 5 4 0 1 8 0 0 0 0 0 0 0 0 0
36 1 0 4 0 1 0 4 0 0 0 0 0 0 0 0 0 0 0 0 0 0 0 1 5 2 1 4 3 8 6 3 0 0 0 7 0 0 0 0 0 0 0 0 0
30 1 13 10 0 0 9 2 0 0 0 0 0 0 0 0 0 0 0 0 0 0 4 1 1 0 0 0 1 14 1 0 0 0 1 0 0 0 0 0 0 0 0 0 0
5 2 10 3 0 1 0 0 0 0 0 0 0 0 0 0 0 0 0 0 0 0 0 0 0 0 0 2 0 2 5 3 0 1 1 0 0 0 0 0 0 0 0 0 0
1 0 1 3 1 2 3 0 0 0 0 0 0 0 0 0 0 0 0 0 0 0 0 0 0 0 0 0 0 0 0 0 0 0 0 2 0 4 0 0 0 0 0 0 0
0 1 2 1 1 4 7 1 0 0 0 0 0 0 0 0 0 0 0 0 0 0 0 0 0 0 0 0 0 0 0 0 0 0 0 0 0 0 0 0 0 0 0 0 0
3 1 0 2 5 4 1 0 0 0 0 0 0 0 0 0 0 0 0 0 0 0 0 0 0 0 0 0 0 0 0 0 0 0 0 0 0 0 0 3 0 0 0 0 0
3 1 1 3 3 0 0 0 0 0 0 0 0 0 0 0 0 0 0 0 0 0 0 0 0 0 0 0 0 0 0 1 3 2 1 0 0 0 0 0 2 0 0 0 0
CIN
-0 -0 -0 -0 -0 -0 -0 -0 -0 -0 -0 -0 -0 -0 -0 -0 -0 -0 -0 -0 -0 -0 -6 -1 -1 -1 -3 -0 -0 -1 -0 -0 -2 -2 -1 -12 -1 -15 -7 -9 -1 -0 -2 -3 -50
-0 -0 -0 -6 -0 -0 -0 -0 -0 -0 -0 -0 -0 -0 -0 -0 -0 -0 -0 -0 -0 -0 -1 -0 -0 -0 -0 -1 -0 -1 -0 -2 -3 -7 -0 -6 -6 -3 -0 -3 -0 -33 -2 -45 -26
-0 -0 -0 -0 -0 -0 -0 -0 -0 -0 -0 -0 -0 -0 -0 -0 -0 -0 -0 -0 -0 -4 -1 -6 -0 -0 -0 -0 -1 -0 -2 -4 -4 -6 -3 -1 -5 -0 -0 -0 -2 -14 -6 -55 -4
-1 -0 -0 -37 -32 -0 -0 -0 -0 -0 -0 -0 -0 -0 -0 -0 -0 -0 -0 -0 -0 -1 -1 -0 -1 -0 -1 -1 -1 -4 -1 -2 -6 -0 -15 -0 -0 -0 -0 -0 -12 -0 -0 -22 -23
-0 -1 -0 -0 -36 -0 -0 -0 -0 -0 -0 -0 -0 -0 -0 -0 -0 -0 -0 -0 -0 -0 -0 -0 -0 -0 -0 -1 -0 -2 -2 -18 -8 -27 -11 -1 -0 -0 -1 -14 -0 -3 -7 -43 -0
-0 -0 -1 -0 -18 -0 -0 -0 -0 -0 -0 -0 -0 -0 -0 -0 -0 -0 -0 -0 -0 -0 -1 -0 -0 -2 -0 -1 -0 -1 -1 -11 -30 -0 -8 -0 -0 -10 -0 -2 -2 -5 -16 -29 -19
-0 -0 -0 -0 -1 -0 -0 -0 -0 -0 -0 -0 -0 -0 -0 -0 -0 -0 -0 -0 -0 -0 -0 -15 -9 -0 -1 -14 -8 -0 -0 -1 -26 -38 -31 -43 -9 -0 -0 -23 -4 -2 -7 -11 -22
-0 -0 -0 -0 -2 -0 -0 -0 -0 -0 -0 -0 -0 -0 -0 -0 -0 -0 -0 -0 -16 -18 -28 -30 -12 -0 -1 -2 -3 -0 -0 -14 -33 -101 -97 -0 -0 -0 -5 -5 -3 -1 -6 -8 -40
-0 -0 -0 -0 -0 -13 -0 -0 -0 -0 -0 -0 -0 -0 -0 -0 -0 -0 -0 -0 -0 -0 -33 -0 -0 -0 -1 -1 -0 -1 -0 -0 -0 -0 -0 -0 -0 -0 -0 -1 -14 -0 -5 -11 -5
-0 -0 -0 -0 -0 -13 -6 -0 -0 -0 -0 -0 -0 -0 -0 -0 -0 -0 -0 -0 -0 -4 -0 -0 -0 -7 -49 -0 -0 -8 -0 -0 -0 -0 -0 -0 -0 -0 -0 -1 -10 -9 -1 -6 -18
-0 -0 -0 -14 -2 -6 -8 -0 -0 -0 -0 -0 -0 -0 -0 -0 -0 -0 -0 -0 -0 -0 -0 -21 -0 -0 -1 -1 -1 -1 -1 -0 -0 -0 -0 -0 -0 -0 -0 -1 -4 -16 -28 -19 -30
-0 -6 -0 -0 -1 -0 -0 -0 -0 -0 -0 -0 -0 -0 -0 -0 -0 -0 -0 -0 -0 -0 -4 -0 -7 -1 -20 -1 -0 -1 -1 -0 -2 -0 -0 -0 -0 -1 -0 -11 -1 -26 -38 -9 -34
-4 -0 -0 -0 -9 -0 -0 -0 -0 -0 -0 -0 -0 -0 -0 -0 -0 -0 -0 -0 -0 -0 -2 -1 -3 -0 -5 -1 -1 -1 -2 -2 -1 -0 -0 -0 -0 -0 -0 -22 -27 -60 -51 -19 -47
-0 -0 -9 -0 -17 -0 -0 -0 -0 -0 -0 -0 -0 -0 -0 -0 -0 -0 -0 -0 -0 -0 -0 -0 -4 -0 -1 -1 -1 -3 -0 -0 -0 -1 -1 -0 -2 -0 -0 -1 -52 -14 -0 -16 -62
-1 -5 -2 -0 -0 -0 -0 -0 -0 -0 -0 -0 -0 -0 -0 -0 -0 -0 -0 -0 -0 -1 -0 -0 -0 -0 -0 -1 -0 -1 -0 -1 -1 -1 -1 -1 -0 -6 -1 -0 -1 -44 -0 -0 -0
-5 -5 -2 -0 -16 -0 -0 -0 -0 -0 -0 -0 -0 -0 -0 -0 -0 -0 -0 -0 -0 -0 -0 -0 -0 -0 -1 -0 -0 -3 -2 -0 -0 -1 -0 -0 -0 -4 -2 -2 -4 -7 -18 -0 -0
-7 -1 -0 -0 -0 -0 -1 -0 -0 -0 -0 -0 -0 -0 -0 -0 -0 -0 -0 -0 -0 -0 -0 -0 -0 -0 -0 -0 -4 -6 -1 -2 -0 -0 -0 -0 -0 -0 -0 -0 -0 -1 -2 -0 -0
-4 -2 -0 -1 -1 -4 -0 -0 -0 -0 -0 -0 -0 -0 -0 -0 -0 -0 -0 -0 -0 -0 -0 -0 -0 -0 -0 -0 -0 -0 -1 -1 -5 -8 -1 -0 -0 -0 -0 -0 -0 -0 -0 -0 -0
-0 -0 -4 -0 -11 -7 -0 -0 -0 -0 -0 -0 -0 -0 -0 -0 -0 -0 -0 -0 -0 -0 -0 -0 -0 -0 -0 -0 -2 -1 -6 -4 -0 -3 -0 -2 -0 -0 -0 -0 -0 -0 -0 -0 -0
-10 -0 -7 -0 -5 -4 -0 -0 -0 -0 -0 -0 -0 -0 -0 -0 -0 -0 -0 -0 -0 -0 -0 -0 -0 -0 -0 -0 -4 -5 -4 -6 -16 -2 -4 -5 -0 -0 -0 -0 -0 -0 -0 -0 -0
-1 -0 -2 -2 -0 -0 -0 -0 -0 -0 -0 -0 -0 -0 -0 -0 -0 -0 -0 -0 -0 -0 -0 -1 -0 -2 -1 -1 -1 -2 -2 -2 -0 -0 -4 -31 -0 -0 -0 -0 -0 -0 -0 -0 -0
-1 -0 -0 -6 -0 -1 -0 -1 -0 -0 -0 -0 -0 -0 -0 -0 -0 -0 -0 -0 -0 -0 -1 -0 -1 -1 -0 -0 -1 -0 -1 -0 -0 -0 -0 -0 -0 -0 -0 -0 -0 -0 -0 -0 -0
-0 -0 -0 -1 -0 -0 -0 -0 -0 -0 -0 -0 -0 -0 -0 -0 -0 -0 -0 -0 -0 -0 -0 -0 -0 -0 -0 -3 -0 -1 -1 -1 -0 -0 -14 -0 -3 -0 -0 -0 -0 -0 -0 -0 -0
-0 -0 -0 -0 -0 -0 -0 -0 -0 -0 -0 -0 -0 -0 -0 -0 -0 -0 -0 -0 -0 -0 -0 -0 -0 -0 -0 -0 -0 -0 -0 -0 -0 -0 -0 -1 -1 -4 -0 -0 -0 -0 -0 -0 -0
-0 -0 -0 -0 -0 -0 -0 -0 -0 -0 -0 -0 -0 -0 -0 -0 -0 -0 -0 -0 -0 -0 -0 -0 -0 -0 -0 -0 -0 -0 -0 -0 -0 -0 -0 -0 -0 -0 -0 -1 -0 -0 -0 -0 -0
-0 -0 -0 -0 -0 -0 -0 -0 -0 -0 -0 -0 -0 -0 -0 -0 -0 -0 -0 -0 -0 -0 -0 -0 -0 -0 -0 -0 -0 -0 -0 -0 -0 -0 -0 -0 -0 -0 -0 -0 -0 -0 -0 -0 -0
-0 -0 -0 -0 -0 -0 -0 -0 -0 -0 -0 -0 -0 -0 -0 -0 -0 -0 -0 -0 -0 -0 -0 -0 -0 -0 -0 -0 -0 -0 -0 -0 -0 -0 -0 -0 -1 -0 -0 -0 -0 -0 -0 -0 -0
Wind_Speed
38 35 21 23 25 27 28 27 27 27 26 26 26 27 28 31 31 27 23 21 23 22 21 25 22 17 15 15 13 17 23 26 27 32 45 37 38 49 51 44 54 45 42 35 30
36 35 32 20 22 25 28 28 28 26 26 25 25 26 28 31 31 25 18 18 17 21 20 24 21 13 10 7 9 10 17 26 33 31 33 41 39 38 49 50 44 46 42 23 29
39 35 31 29 21 24 27 28 27 26 26 25 24 25 28 32 29 17 18 17 20 13 14 12 13 11 10 7 4 6 26 34 31 32 25 29 35 43 45 56 48 48 38 25 31
38 37 36 42 20 23 26 27 27 25 26 25 24 24 29 25 22 18 17 17 15 12 11 10 11 9 9 6 17 19 32 30 30 30 29 29 33 39 45 56 43 44 46 23 36
39 38 38 42 18 22 24 26 26 25 26 24 23 24 28 23 12 17 14 15 14 12 11 13 10 8 8 16 25 31 26 26 26 24 26 29 33 36 42 43 47 47 43 30 35
39 39 36 37 21 22 24 25 25 23 24 22 20 26 27 20 17 14 15 15 13 11 12 12 10 12 15 22 25 23 27 27 24 26 25 30 34 33 40 41 36 44 39 26 37
38 38 37 37 27 23 25 26 26 24 23 24 24 25 25 12 16 12 12 9 11 11 11 12 9 10 19 20 22 23 25 25 25 23 25 29 33 39 40 37 34 38 32 29 31
37 37 38 38 37 24 26 27 26 25 23 22 19 24 24 17 13 9 10 7 11 10 11 9 9 12 17 19 20 24 26 28 28 24 25 26 32 27 36 38 39 35 33 34 27
37 38 40 39 37 34 27 29 28 26 22 17 20 23 23 17 8 12 11 18 8 10 12 11 11 12 17 19 20 25 23 28 26 26 21 20 27 26 29 37 36 34 34 32 26
36 40 41 41 39 35 27 29 27 21 18 17 23 23 22 18 9 10 12 18 11 12 10 12 12 14 19 18 19 19 27 24 27 22 24 27 28 27 29 35 37 35 37 32 24
33 38 39 41 36 26 25 23 22 23 21 27 23 23 22 21 12 11 13 12 9 10 10 13 12 14 17 20 21 23 24 25 22 22 24 27 26 29 28 28 32 35 36 31 28
35 33 36 34 26 20 22 25 25 21 28 29 29 26 23 20 15 14 11 12 12 12 11 11 12 6 19 21 23 23 25 24 22 24 25 25 27 28 27 28 27 31 35 30 24
31 29 33 31 27 23 23 25 21 20 26 23 24 25 22 20 17 15 12 13 11 11 10 9 9 13 21 24 22 23 25 24 26 23 24 25 28 25 25 27 23 24 27 27 22
32 32 31 28 23 21 23 21 19 18 25 24 22 21 20 20 18 17 14 13 13 11 10 8 9 7 7 11 25 29 21 24 25 25 23 21 21 22 19 26 25 22 23 25 26
35 32 27 24 24 21 19 17 16 17 26 19 19 17 18 20 16 16 15 13 11 10 11 11 10 8 4 4 22 27 26 27 26 27 26 22 23 16 16 27 21 22 22 25 27
32 28 23 22 20 22 18 16 17 24 27 19 17 20 19 20 18 16 15 13 10 9 9 5 8 8 7 4 3 27 28 26 25 25 26 21 22 16 21 23 24 22 19 20 23
25 24 24 23 22 20 19 17 24 26 19 19 20 19 21 19 18 16 15 13 10 10 13 12 13 11 10 9 6 5 25 22 27 29 27 21 23 22 19 19 21 21 20 19 19
17 21 24 28 28 20 20 23 26 22 19 16 17 18 18 18 16 15 14 12 14 10 11 16 19 19 17 14 11 7 20 20 22 27 27 20 22 21 19 18 15 18 21 19 21
13 14 13 14 18 22 24 26 18 20 18 18 17 19 18 18 15 16 13 12 11 11 12 15 20 15 17 15 13 12 6 23 25 24 26 21 19 14 14 16 18 20 20 23 23
11 12 13 13 18 23 24 21 17 15 15 17 17 17 18 17 17 15 14 11 11 12 13 15 19 19 18 17 16 12 11 11 20 21 24 22 22 20 19 20 18 16 17 15 19
11 10 15 13 17 22 22 19 18 14 14 15 15 15 15 15 16 14 13 12 10 10 13 14 17 20 18 23 21 17 13 11 16 20 20 21 19 19 21 21 21 17 14 12 12
11 11 13 17 19 22 20 17 17 15 15 14 14 14 15 15 15 14 13 11 9 10 11 16 14 19 21 20 18 20 18 15 9 15 20 18 14 14 16 17 16 16 14 13 13
12 12 12 14 20 22 18 16 17 16 15 14 14 14 14 14 15 14 13 12 10 13 13 13 17 22 23 23 25 22 19 16 15 9 16 20 17 17 16 16 16 16 16 14 14
13 15 14 17 15 17 18 18 18 16 15 14 15 14 14 14 14 14 14 12 12 14 14 14 16 18 23 21 16 16 15 14 15 16 4 17 17 14 17 18 17 15 13 13 14
13 14 14 19 17 16 15 16 19 16 14 14 13 15 14 15 14 14 13 14 14 13 14 16 17 17 17 19 18 15 15 14 15 13 13 9 25 25 23 22 19 16 15 14 15
16 15 14 14 17 16 16 15 16 15 14 13 14 13 14 14 13 13 14 13 13 14 14 14 18 18 23 20 22 22 18 16 13 9 9 10 14 20 23 24 21 18 17 18 19
15 14 15 14 16 19 17 16 14 14 12 12 13 14 13 13 13 13 12 9 11 14 14 16 17 18 24 22 22 26 21 18 16 14 10 7 7 27 28 26 25 26 23 21 21
Wind_Direction
332 336 335 335 337 338 339 340 340 340 340 341 341 339 341 332 327 333 339 345 344 349 349 339 333 331 328 308 281 290 278 270 254 250 248 240 249 240 239 238 241 243 238 236 223
328 332 333 330 332 334 334 336 337 340 340 342 340 342 342 327 322 336 360 9 5 0 357 352 353 15 3 335 312 275 274 267 249 240 243 237 250 248 240 238 243 233 240 223 213
328 329 330 326 325 327 327 330 334 337 339 337 342 341 335 324 326 358 18 19 9 26 19 30 34 41 29 38 123 291 267 228 232 226 257 240 250 245 243 234 236 228 240 215 222
332 329 327 321 317 323 325 328 331 335 334 334 343 342 325 332 348 3 24 21 29 44 43 55 48 52 44 70 163 263 215 235 230 238 241 253 273 241 240 223 237 232 262 223 221
334 331 328 324 319 320 321 325 331 328 328 334 337 344 318 332 5 17 33 36 44 60 62 57 63 102 153 190 216 214 207 219 235 245 250 264 275 251 232 231 226 223 251 215 218
335 334 331 327 318 321 320 320 326 332 329 334 340 322 314 251 6 27 31 40 60 71 76 69 85 181 216 250 217 228 218 219 219 236 260 274 273 250 232 235 234 236 240 209 221
336 336 330 324 323 316 317 316 318 322 324 322 319 313 267 217 9 33 40 76 74 80 87 79 128 99 283 253 240 216 215 222 219 233 260 267 274 238 235 237 250 249 246 228 226
338 335 328 317 315 315 312 312 314 314 318 323 335 302 255 348 16 44 59 152 79 93 113 106 144 173 208 219 205 214 215 219 214 247 246 286 266 259 236 235 239 241 235 224 226
337 332 321 313 305 305 307 306 304 305 313 331 313 293 249 338 84 39 57 322 154 130 109 121 129 162 215 176 201 206 216 213 221 217 213 258 264 252 243 236 237 236 229 225 226
335 325 320 315 303 302 303 302 298 306 313 324 297 265 244 253 121 68 55 327 81 99 140 147 152 171 177 193 207 234 216 232 210 220 242 264 264 252 248 237 234 233 228 226 232
331 327 326 321 310 299 299 301 288 285 289 254 269 260 259 262 168 115 50 34 46 73 138 112 155 160 182 233 242 246 240 237 249 262 249 257 258 240 244 238 236 230 230 231 236
324 332 327 325 324 311 292 276 276 290 257 236 253 247 264 259 197 167 107 155 155 164 132 144 190 142 244 248 268 259 249 250 267 266 263 262 265 244 244 238 240 235 233 233 234
327 328 319 306 308 308 280 273 287 293 252 260 253 242 250 225 203 182 184 163 156 155 150 164 164 335 317 302 301 281 270 280 268 264 249 261 251 246 243 238 243 242 237 229 230
322 309 304 298 305 303 271 280 278 287 240 240 243 244 243 223 200 208 191 161 133 125 119 124 115 126 162 276 299 278 299 285 280 270 274 275 266 254 247 236 239 242 238 237 237
306 286 293 298 283 279 281 281 273 268 218 241 238 255 234 214 212 186 186 152 134 121 101 94 79 84 113 75 318 290 299 286 282 275 280 268 263 266 254 240 244 243 244 241 242
287 282 295 287 283 267 275 267 253 219 215 230 232 222 219 214 211 196 162 136 126 114 100 103 70 72 61 44 39 301 286 284 282 276 269 272 265 268 256 251 245 242 244 246 246
269 268 273 259 252 260 249 234 211 210 228 220 218 221 219 222 222 213 167 138 128 101 79 69 67 61 58 39 54 23 291 286 270 261 264 279 269 271 280 271 257 249 248 248 250
248 261 249 229 217 237 222 214 205 214 216 228 220 221 218 222 235 234 178 155 107 110 79 62 52 52 48 46 45 63 300 285 281 263 257 275 267 272 292 282 273 266 259 254 253
249 266 235 232 226 210 206 200 210 210 217 215 215 213 217 221 234 210 193 169 125 104 82 63 55 54 54 49 54 56 74 284 274 273 265 264 268 290 301 286 277 269 263 262 261
253 250 222 210 206 198 202 204 210 218 219 220 213 219 215 223 216 212 198 186 137 101 86 70 53 57 52 53 66 70 58 348 276 271 261 256 261 270 282 278 282 284 274 276 271
229 216 212 224 204 198 198 206 207 224 222 221 221 223 229 229 227 218 213 184 165 113 89 71 65 57 55 53 47 59 83 28 301 270 265 259 264 294 286 288 285 289 289 291 289
222 212 210 207 198 200 201 209 215 221 224 232 235 236 233 231 224 216 208 215 205 122 95 74 75 53 51 59 67 74 83 97 40 306 266 270 283 327 321 315 302 299 309 298 293
217 210 215 213 192 198 209 213 216 221 224 231 235 239 240 234 220 222 212 237 242 111 100 80 71 54 59 65 66 72 86 110 122 341 293 267 280 337 333 332 316 305 306 317 309
214 193 200 203 199 203 209 213 211 225 228 236 240 241 240 237 243 219 195 192 147 104 94 87 79 69 56 55 66 68 80 103 121 132 265 288 290 322 323 324 319 313 319 319 318
214 198 203 203 210 210 214 211 208 218 232 238 243 241 244 234 231 223 212 156 134 121 99 89 79 75 72 68 69 82 85 95 106 132 143 264 283 287 297 303 311 311 312 309 317
198 197 209 210 211 214 213 214 216 229 237 237 242 252 248 243 252 245 218 185 151 116 108 101 85 81 70 71 74 77 86 93 100 116 146 167 203 300 301 292 297 307 304 300 299
205 211 202 217 217 212 218 220 228 235 240 250 252 247 253 263 274 279 271 261 128 129 107 100 90 82 69 76 74 69 79 84 86 89 108 133 146 297 295 297 290 285 292 296 300